星链-4545 (STARLINK-4545 )

导读

STARLINK-4545是美国SpaceX星链星座中的一颗卫星,于2022年8月10日发射升空,属于星链项目低轨互联网星座组网卫星,旨在为全球提供高速低延迟宽带互联网服务,运行于近地轨道,是SpaceX大规模卫星互联网部署计划的组成部分。

基本信息
目录编号:
53421
目录名称:
STARLINK-4545
国际标识:
2022-097AK
轨道中心:
EARTH
卫星名称:
星链-4545
卫星全名:
星链-4545 (STARLINK-4545 )
卫星状态:
在轨 (已飞行1493 天)
发射日期:
2022-08-10 UTC
国别 :
美国 (US)
星等 :
--
该卫星已列入 空间交会检测服务 Space Conjunction Data Service (SCDS) ,当前飞行风险评估等级: 无高风险
轨道信息
数据来源 国际轨道数据 AOE轨道数据
星历时间 2026-09-10T21:23:11+0800
1天前
查看轨道信息
2026-09-10T09:00:00+0800
1天前
查看轨道信息
半长轴 6848.864km 6848.911km
偏心率 0.000108 0.0001508
轨道倾角 53.161° 53.161°
近地点辐角 86.392° 47.399°
升交点赤经 353.123° 355.525°
平近点角 273.720° 345.261°
近地点 469.987km 469.741km
远地点 471.467km 471.807km
周期 94.013分钟 94.014分钟
每日圈数 15.317044 15.316886
详细信息
固有亮度:
5
最大亮度:
2.5
卫星平台:
Starlink v1.5
覆盖范围:
全球
运营商:
太空探索技术公司
运营商所在国:
美国
制造商(研发单位):
太空探索技术公司
制造商所在国:
美国
使用方式:
暂无
卫星简介
星链(Starlink)计划是由太空探索技术公司(SpaceX)提出的一个巨型低轨卫星互联网星座项目,计划在2019年至2024年间在太空搭建由约1.2万颗卫星组成的“星链”网络,其中1584颗将部署在地球上空550千米处的近地轨道,并从2020年开始工作。该卫星仍在工作。
2D轨道图
3D轨道图
轨道高度分析图
轨道倾角分析图
轨道综合分析图
查看轨道综合分析图
交会数据列表
事件ID 空间交会对象 最接近时刻(TCA) 交会距离 交会风险概率(CRP) 交会风险指数(CRI) 操作
CDM_260911-105205-305405-342121
2026-09-11T
10:52:12+0000
2.072 km
极远距离
2.117808E-6 低风险 0.42
CDM_260906-115005-342106-860422
2026-09-06T
11:50:17+0000
2.796 km
极远距离
1.177789E-6 低风险 0.36
CDM_260911-184905-342106-948923
2026-09-11T
18:49:22+0000
2.865 km
极远距离
1.120214E-6 低风险 0.36
与全量物体交会距离演化趋势
与全量物体交会风险概率演化趋势